Moline, IL

10:31 PM CDT on May 21, 2018 (GMT -0500)
Quad-City International

Weather History for KMLI - January, 2013

Change the Weather History Date:

Thursday, January 31, 2013

  Actual Average Record
Temperature  
Mean Temperature 10 °F 23 °F  
Max Temperature 18 °F 32 °F 69 °F (1989)
Min Temperature 2 °F 15 °F -21 °F (1996)
Degree Days  
Heating Degree Days 55 42  
Month to date heating degree days 1226 1314  
Since 1 July heating degree days 3572 3734  
Cooling Degree Days 0 0  
Month to date cooling degree days 0 0  
Year to date cooling degree days 0 0  
Moisture  
Dew Point 1 °F    
Average Humidity 71    
Maximum Humidity 80    
Minimum Humidity 62    
Precipitation  
Precipitation T in 0.05 in 0.41 in (1915)
Month to date precipitation 2.86 1.49  
Year to date precipitation 2.86 1.49  
Snow  
Snow T in 0.30 in - ()
Month to date snowfall 4.3 9.4  
Since 1 July snowfall 9.6 19.9  
Snow Depth 2.00 in    
Sea Level Pressure  
Sea Level Pressure 30.05 in    
Wind  
Wind Speed 19 mph (WNW)    
Max Wind Speed 29 mph    
Max Gust Speed 38 mph    
Visibility 8 miles    
Events Snow    
T = Trace of Precipitation, MM = Missing Value Source: NWS Daily Summary

Daily Weather History Graph

Daily Weather History Graph

Search for Another Location

Airport or City:

Astronomy

Jan. 31, 2013 Rise Set
Actual Time 7:14 AM CST 5:17 PM CST
Civil Twilight 6:44 AM CST 5:46 PM CST
Nautical Twilight 6:11 AM CST 6:19 PM CST
Astronomical Twilight 5:39 AM CST 6:52 PM CST
Moon 10:24 PM CST (1/31) 9:09 AM CST (1/31)
Length of Visible Light 11h 01m
Length of Day
10h 02m
Waning Gibbous, 79% of the Moon is Illuminated
Jan 31
Waning Gibbous
Feb 3
Last Quarter
Feb 10
New
Feb 17
First Quarter
Feb 25
Full

Hourly Weather History & Observations

Time (CST) Temp. Windchill Dew Point Humidity Pressure Visibility Wind Dir Wind Speed Gust Speed Precip Events Conditions
12:39 AM 15.8 °F 0.3 °F 10.4 °F 79% 29.79 in 10.0 mi West 16.1 mph 21.9 mph 0.00 in   Mostly Cloudy
12:52 AM 16.0 °F 1.7 °F 10.0 °F 77% 29.81 in 10.0 mi West 13.8 mph - 0.00 in   Mostly Cloudy
1:52 AM 18.0 °F 5.4 °F 12.0 °F 78% 29.83 in 10.0 mi West 11.5 mph - N/A   Overcast
2:17 AM 17.6 °F 3.7 °F 12.2 °F 79% 29.81 in 10.0 mi WNW 13.8 mph 20.7 mph N/A   Overcast
3:22 AM 17.6 °F 2.2 °F 10.4 °F 73% 29.81 in 10.0 mi WNW 17.3 mph 25.3 mph N/A   Overcast
3:52 AM 14.0 °F -3.4 °F 6.1 °F 71% 29.86 in 10.0 mi WNW 19.6 mph 29.9 mph 0.00 in   Scattered Clouds
4:52 AM 12.9 °F -6.1 °F 5.0 °F 71% 29.87 in 10.0 mi West 23.0 mph 29.9 mph N/A   Partly Cloudy
5:32 AM 12.2 °F -3.7 °F 3.2 °F 67% 29.85 in 10.0 mi WNW 15.0 mph 23.0 mph N/A   Mostly Cloudy
5:52 AM 12.0 °F -4.0 °F 5.0 °F 73% 29.88 in 10.0 mi WNW 15.0 mph 23.0 mph N/A   Mostly Cloudy
6:13 AM 12.2 °F -4.3 °F 3.2 °F 67% 29.86 in 10.0 mi West 16.1 mph 23.0 mph N/A   Partly Cloudy
6:52 AM 10.9 °F -5.4 °F 3.9 °F 73% 29.90 in 10.0 mi West 15.0 mph - N/A   Clear
7:52 AM 10.9 °F -4.7 °F 3.9 °F 73% 29.94 in 10.0 mi WNW 13.8 mph 25.3 mph N/A   Scattered Clouds
8:32 AM 10.4 °F -6.6 °F 3.2 °F 73% 29.92 in 10.0 mi West 16.1 mph 24.2 mph N/A   Mostly Cloudy
8:52 AM 10.0 °F -9.1 °F 3.0 °F 73% 29.96 in 10.0 mi WNW 20.7 mph 28.8 mph N/A   Mostly Cloudy
9:38 AM 10.4 °F -8.2 °F 3.2 °F 73% 29.94 in 10.0 mi WNW 19.6 mph - N/A   Scattered Clouds
9:52 AM 10.9 °F -7.5 °F 3.0 °F 70% 29.98 in 10.0 mi WNW 19.6 mph 26.5 mph N/A   Partly Cloudy
10:44 AM 12.2 °F -6.3 °F 5.0 °F 73% 29.98 in 10.0 mi West 20.7 mph 26.5 mph N/A   Mostly Cloudy
10:52 AM 12.0 °F -5.6 °F 3.9 °F 70% 30.01 in 10.0 mi West 18.4 mph 26.5 mph N/A   Mostly Cloudy
11:52 AM 12.0 °F -6.5 °F 3.9 °F 70% 30.04 in 6.0 mi West 20.7 mph 26.5 mph 0.00 in Snow Light Snow
12:22 PM 10.4 °F -7.7 °F 1.4 °F 67% 30.00 in 10.0 mi West 18.4 mph 25.3 mph 0.00 in   Unknown
12:33 PM 10.4 °F -7.7 °F 1.4 °F 67% 30.01 in 9.0 mi WNW 18.4 mph 26.5 mph 0.00 in   Mostly Cloudy
12:52 PM 10.9 °F -8.3 °F 1.9 °F 67% 30.04 in 8.0 mi WNW 21.9 mph 31.1 mph 0.00 in   Mostly Cloudy
1:14 PM 10.4 °F -10.7 °F 1.4 °F 67% 30.01 in 5.0 mi WNW 26.5 mph 33.4 mph 0.00 in Snow Blowing Snow
1:52 PM 9.0 °F -11.4 °F 1.9 °F 73% 30.06 in 2.0 mi WNW 23.0 mph 33.4 mph 0.00 in Snow Light Snow
2:01 PM 8.6 °F -11.9 °F -0.4 °F 67% 30.03 in 9.0 mi WNW 23.0 mph 33.4 mph 0.00 in   Mostly Cloudy
2:52 PM 9.0 °F -10.0 °F -0.0 °F 67% 30.08 in 6.0 mi WNW 19.6 mph 31.1 mph 0.00 in   Haze
3:45 PM 8.6 °F -12.3 °F 1.4 °F 73% 30.08 in 1.8 mi WNW 24.2 mph 33.4 mph 0.00 in Snow Blowing Snow
3:52 PM 8.1 °F -11.7 °F -0.9 °F 67% 30.12 in 2.5 mi WNW 20.7 mph 35.7 mph 0.00 in Snow Light Snow
4:00 PM 8.6 °F -8.9 °F -0.4 °F 67% 30.09 in 8.0 mi West 16.1 mph 31.1 mph 0.00 in   Mostly Cloudy
4:30 PM 8.6 °F -10.0 °F 1.4 °F 73% 30.09 in 2.0 mi WNW 18.4 mph 24.2 mph 0.00 in Snow Blowing Snow
4:43 PM 8.6 °F -12.3 °F -0.4 °F 67% 30.09 in 2.0 mi WNW 24.2 mph 32.2 mph 0.00 in Snow Light Snow
4:52 PM 7.0 °F -14.5 °F -2.0 °F 67% 30.14 in 2.0 mi WNW 24.2 mph 38.0 mph 0.00 in Snow Blowing Snow
5:10 PM 6.8 °F -12.9 °F -2.2 °F 67% 30.11 in 10.0 mi WNW 19.6 mph 32.2 mph N/A Snow Blowing Snow
5:52 PM 5.0 °F -14.7 °F -2.9 °F 70% 30.18 in 10.0 mi WNW 18.4 mph 32.2 mph N/A   Partly Cloudy
6:52 PM 5.0 °F -17.1 °F -2.9 °F 70% 30.21 in 10.0 mi WNW 24.2 mph 31.1 mph N/A   Overcast
7:02 PM 5.0 °F -13.6 °F -2.2 °F 72% 30.17 in 9.0 mi WNW 16.1 mph 29.9 mph N/A   Overcast
7:52 PM 5.0 °F -14.7 °F -2.9 °F 70% 30.24 in 8.0 mi WNW 18.4 mph 25.3 mph N/A   Overcast
8:22 PM 3.2 °F -19.0 °F -5.8 °F 66% 30.21 in 10.0 mi WNW 23.0 mph 33.4 mph N/A   Scattered Clouds
8:52 PM 3.0 °F -16.7 °F -5.1 °F 69% 30.27 in 9.0 mi WNW 17.3 mph 27.6 mph N/A   Mostly Cloudy
9:52 PM 3.0 °F -17.8 °F -7.1 °F 63% 30.30 in 10.0 mi NW 19.6 mph 25.3 mph N/A   Mostly Cloudy
10:52 PM 1.9 °F -17.5 °F -6.0 °F 69% 30.32 in 10.0 mi WNW 16.1 mph 26.5 mph N/A   Overcast
11:28 PM 1.4 °F -18.2 °F -7.6 °F 66% 30.29 in 10.0 mi WNW 16.1 mph 21.9 mph N/A   Scattered Clouds
11:41 PM 1.4 °F -15.3 °F -5.8 °F 72% 30.29 in 10.0 mi West 11.5 mph - N/A   Mostly Cloudy
11:52 PM 1.9 °F -19.2 °F -6.0 °F 69% 30.35 in 10.0 mi WNW 19.6 mph 24.2 mph N/A   Scattered Clouds